DW5861 Weather Reports


Display with metric or nautical units.
time (UTC)temp
F
wind
direction
speed
MPH
gust
MPH
rain 1hr
in
rain 24hr
in
rain mn
in
humidity
%
barometer
mb
20260831124004 73 9 1.0 2.0 0.00 0.00 0.00 89 1015.6
20260831123504 73 336 1.0 1.0 0.00 0.00 0.00 89 1015.5
20260831123003 73 330 1.0 1.0 0.00 0.00 0.00 89 1015.4
20260831122503 73 329 0.0 1.0 0.00 0.00 0.00 89 1015.5
20260831122004 73 346 0.0 1.0 0.00 0.00 0.00 88 1015.5
20260831121504 73 20 0.0 1.0 0.00 0.00 0.00 88 1015.5
20260831121003 73 301 0.0 1.0 0.00 0.00 0.00 88 1015.3
20260831120503 73 347 0.0 1.0 0.00 0.00 0.00 88 1015.3
20260831120004 73 329 0.0 1.0 0.00 0.00 0.00 88 1015.2
20260831115525 73 293 0.0 1.0 0.00 0.00 0.00 88 1015.1
20260831115004 73 331 0.0 1.0 0.00 0.00 0.00 88 1015.1
20260831114504 74 324 0.0 1.0 0.00 0.00 0.00 88 1015.0
20260831114004 74 321 0.0 1.0 0.00 0.00 0.00 88 1015.0
20260831113504 74 356 0.0 1.0 0.00 0.00 0.00 88 1014.9
20260831113004 74 350 0.0 1.0 0.00 0.00 0.00 88 1014.9
20260831112525 74 340 0.0 1.0 0.00 0.00 0.00 88 1014.9
20260831112004 74 249 0.0 1.0 0.00 0.00 0.00 88 1014.8
20260831111504 74 256 0.0 1.0 0.00 0.00 0.00 87 1014.7
20260831111004 74 19 0.0 1.0 0.00 0.00 0.00 87 1014.6
20260831110504 74 99 0.0 1.0 0.00 0.00 0.00 87 1014.6
20260831110003 74 103 0.0 1.0 0.00 0.00 0.00 87 1014.7
20260831105503 74 106 0.0 1.0 0.00 0.00 0.00 87 1014.7
20260831105003 74 310 0.0 1.0 0.00 0.00 0.00 87 1014.7
20260831104525 74 312 0.0 1.0 0.00 0.00 0.00 87 1014.7
20260831104003 75 308 0.0 1.0 0.00 0.00 0.00 87 1014.7
20260831103504 75 312 0.0 1.0 0.00 0.00 0.00 87 1014.7
20260831103004 75 110 0.0 1.0 0.00 0.00 0.00 87 1014.8
20260831102524 75 127 0.0 1.0 0.00 0.00 0.00 87 1014.8
20260831102003 75 136 0.0 1.0 0.00 0.00 0.00 87 1014.8
20260831101504 75 143 0.0 1.0 0.00 0.00 0.00 87 1014.7
20260831101003 75 213 0.0 1.0 0.00 0.00 0.00 86 1014.6
20260831100504 75 214 1.0 2.0 0.00 0.00 0.00 86 1014.6
20260831100003 75 215 1.0 2.0 0.00 0.00 0.00 86 1014.6
20260831095504 76 214 1.0 2.0 0.00 0.00 0.00 86 1014.7
20260831095024 76 212 1.0 2.0 0.00 0.00 0.00 86 1014.7
20260831094504 76 208 1.0 2.0 0.00 0.00 0.00 85 1014.7
20260831094024 76 197 1.0 2.0 0.00 0.00 0.00 85 1014.6
20260831093524 76 163 1.0 2.0 0.00 0.00 0.00 85 1014.5
20260831093024 76 137 0.0 1.0 0.00 0.00 0.00 85 1014.4
20260831092503 76 104 0.0 1.0 0.00 0.00 0.00 85 1014.4
20260831092004 76 125 0.0 1.0 0.00 0.00 0.00 84 1014.4
20260831091524 77 176 0.0 1.0 0.00 0.00 0.00 84 1014.4
20260831091024 77 227 0.0 1.0 0.00 0.00 0.00 84 1014.4
20260831090503 77 188 0.0 1.0 0.00 0.00 0.00 84 1014.5
20260831090004 77 204 0.0 1.0 0.00 0.00 0.00 84 1014.4
20260831085503 77 213 0.0 1.0 0.00 0.00 0.00 84 1014.5
20260831085004 77 215 0.0 1.0 0.00 0.00 0.00 83 1014.5
20260831084503 77 203 1.0 2.0 0.00 0.00 0.00 83 1014.4
20260831084003 77 207 1.0 2.0 0.00 0.00 0.00 83 1014.5
20260831083503 77 198 1.0 2.0 0.00 0.00 0.00 83 1014.5
20260831083003 78 183 1.0 2.0 0.00 0.00 0.00 83 1014.5
20260831082503 78 199 1.0 2.0 0.00 0.00 0.00 82 1014.4
20260831082003 78 207 1.0 2.0 0.00 0.00 0.00 82 1014.5
20260831081503 78 185 1.0 2.0 0.00 0.00 0.00 82 1014.6
20260831081003 78 178 1.0 2.0 0.00 0.00 0.00 82 1014.6
20260831080524 78 200 1.0 2.0 0.00 0.00 0.00 82 1014.6
20260831080004 78 188 1.0 5.0 0.00 0.00 0.00 81 1014.7
20260831075503 78 178 1.0 5.0 0.00 0.00 0.00 81 1014.6
20260831075003 78 174 2.0 5.0 0.00 0.00 0.00 81 1014.6
20260831074503 78 162 2.0 5.0 0.00 0.00 0.00 81 1014.6
20260831074024 78 156 2.0 4.0 0.00 0.00 0.00 81 1014.6
20260831073524 78 161 2.0 5.0 0.00 0.00 0.00 81 1014.6
20260831073003 78 166 1.0 5.0 0.00 0.00 0.00 80 1014.5
20260831072503 79 191 0.0 1.0 0.00 0.00 0.00 80 1014.5
20260831072004 79 183 1.0 2.0 0.00 0.00 0.00 79 1014.5
20260831071503 79 184 1.0 2.0 0.00 0.00 0.00 79 1014.6
20260831071003 79 194 0.0 1.0 0.00 0.00 0.00 79 1014.6
20260831070503 79 151 0.0 1.0 0.00 0.00 0.00 79 1014.7
20260831070003 79 147 0.0 2.0 0.00 0.00 0.00 78 1014.7
20260831065524 79 151 0.0 2.0 0.00 0.00 0.00 78 1014.7
20260831065003 80 187 1.0 1.0 0.00 0.00 0.00 78 1014.6
20260831064503 80 211 1.0 2.0 0.00 0.00 0.00 77 1014.6
20260831064003 80 211 1.0 2.0 0.00 0.00 0.00 77 1014.7
20260831063503 80 189 1.0 2.0 0.00 0.00 0.00 77 1014.7
20260831063003 80 197 1.0 2.0 0.00 0.00 0.00 77 1014.7
20260831062503 80 191 1.0 2.0 0.00 0.00 0.00 76 1014.8
20260831062003 80 189 1.0 2.0 0.00 0.00 0.00 76 1014.8
20260831061503 81 197 1.0 3.0 0.00 0.00 0.00 76 1014.8
20260831061003 81 195 1.0 3.0 0.00 0.00 0.00 75 1014.8
20260831060503 81 186 1.0 2.0 0.00 0.00 0.00 75 1014.8
20260831060003 81 194 1.0 2.0 0.00 0.00 0.00 74 1014.8
20260831055503 81 202 1.0 2.0 0.00 0.00 0.00 74 1014.8
20260831055004 81 201 1.0 2.0 0.00 0.00 0.00 74 1014.8
20260831054503 81 194 1.0 2.0 0.00 0.00 0.00 74 1014.7
20260831054003 82 181 1.0 3.0 0.00 0.00 0.00 74 1014.8
20260831053524 82 176 1.0 4.0 0.00 0.00 0.00 74 1014.8
20260831053003 82 179 1.0 4.0 0.00 0.00 0.00 73 1014.8
20260831052503 82 187 1.0 3.0 0.00 0.00 0.00 73 1014.8
20260831052003 82 179 1.0 3.0 0.00 0.00 0.00 73 1014.8
20260831051503 82 171 1.0 3.0 0.00 0.00 0.00 73 1014.7
20260831051003 82 165 1.0 3.0 0.00 0.00 0.00 72 1014.6
20260831050524 82 147 1.0 4.0 0.00 0.00 0.00 72 1014.7
20260831050003 83 145 2.0 4.0 0.00 0.00 0.00 72 1014.6
20260831045503 83 160 2.0 3.0 0.00 0.00 0.00 72 1014.6
20260831045003 83 150 1.0 3.0 0.00 0.00 0.00 72 1014.7
20260831044504 83 145 1.0 3.0 0.00 0.00 0.00 71 1014.8
20260831044003 83 147 1.0 3.0 0.00 0.00 0.00 71 1014.7
20260831043503 83 166 2.0 3.0 0.00 0.00 0.00 71 1014.7
20260831043003 83 158 2.0 3.0 0.00 0.00 0.00 71 1014.6
20260831042503 84 112 1.0 3.0 0.00 0.00 0.00 71 1014.6
20260831042024 84 150 1.0 5.0 0.00 0.00 0.00 70 1014.5
20260831041503 84 106 2.0 5.0 0.00 0.00 0.00 70 1014.4
20260831041003 84 71 2.0 4.0 0.00 0.00 0.00 70 1014.6
20260831040503 84 78 1.0 3.0 0.00 0.00 0.00 70 1014.5
20260831040003 84 141 1.0 2.0 0.00 0.00 0.00 69 1014.3
20260831035503 84 178 1.0 2.0 0.00 0.00 0.00 69 1014.2
20260831035003 84 200 1.0 2.0 0.00 0.00 0.00 68 1014.1
20260831034503 85 182 1.0 2.0 0.00 0.00 0.00 68 1014.0
20260831034003 85 156 1.0 4.0 0.00 0.00 0.00 68 1014.0
20260831033503 85 149 1.0 4.0 0.00 0.00 0.00 67 1013.9
20260831033003 85 152 1.0 3.0 0.00 0.00 0.00 66 1013.9
20260831032503 85 163 1.0 3.0 0.00 0.00 0.00 66 1013.7
20260831032003 86 174 1.0 3.0 0.00 0.00 0.00 66 1013.7
20260831031503 86 154 2.0 4.0 0.00 0.00 0.00 65 1013.6
20260831031003 86 155 1.0 4.0 0.00 0.00 0.00 64 1013.5
20260831030524 86 176 1.0 3.0 0.00 0.00 0.00 64 1013.4
20260831030003 86 176 1.0 3.0 0.00 0.00 0.00 63 1013.2
20260831025503 86 165 1.0 2.0 0.00 0.00 0.00 62 1013.2
20260831025003 86 164 2.0 3.0 0.00 0.00 0.00 61 1013.2
20260831024503 87 173 2.0 3.0 0.00 0.00 0.00 61 1013.2
20260831024003 87 174 2.0 3.0 0.00 0.00 0.00 60 1013.1
20260831023503 87 175 2.0 4.0 0.00 0.00 0.00 58 1013.0
20260831023003 87 185 2.0 4.0 0.00 0.00 0.00 59 1012.9
20260831022503 87 186 2.0 4.0 0.00 0.00 0.00 59 1012.8
20260831022024 87 170 1.0 2.0 0.00 0.00 0.00 58 1012.6
20260831021504 88 93 1.0 2.0 0.00 0.00 0.00 58 1012.5
20260831021003 88 107 1.0 2.0 0.00 0.00 0.00 57 1012.4
20260831020503 88 166 1.0 3.0 0.00 0.00 0.00 56 1012.4
20260831020003 88 193 1.0 4.0 0.00 0.00 0.00 56 1012.3
20260831015503 88 200 1.0 4.0 0.00 0.00 0.00 55 1012.2
20260831015003 89 168 1.0 2.0 0.00 0.00 0.00 54 1012.2
20260831014503 89 173 1.0 2.0 0.00 0.00 0.00 54 1012.1
20260831014003 89 165 1.0 2.0 0.00 0.00 0.00 52 1012.1
20260831013524 90 141 0.0 2.0 0.00 0.00 0.00 51 1012.0
20260831013003 90 140 0.0 1.0 0.00 0.00 0.00 50 1012.0
20260831012503 90 160 0.0 2.0 0.00 0.00 0.00 48 1012.0
20260831012003 91 181 1.0 2.0 0.00 0.00 0.00 48 1011.9
20260831011503 91 187 1.0 2.0 0.00 0.00 0.00 47 1011.9
20260831011003 92 182 1.0 2.0 0.00 0.00 0.00 46 1011.9
20260831010524 92 180 1.0 2.0 0.00 0.00 0.00 46 1011.8
20260831010003 92 185 1.0 3.0 0.00 0.00 0.00 45 1011.8
20260831005503 93 191 2.0 3.0 0.00 0.00 0.00 43 1011.8
20260831005003 93 188 2.0 4.0 0.00 0.00 0.00 42 1011.8
20260831004503 94 183 1.0 4.0 0.00 0.00 0.00 41 1011.8
20260831004003 94 174 1.0 2.0 0.00 0.00 0.00 41 1011.8
20260831003503 95 144 1.0 2.0 0.00 0.00 0.00 39 1011.7
20260831003003 95 122 1.0 2.0 0.00 0.00 0.00 39 1011.8
20260831002525 96 122 1.0 2.0 0.00 0.00 0.00 38 1011.7
20260831002004 96 124 1.0 2.0 0.00 0.00 0.00 38 1011.7
20260831001504 96 98 1.0 2.0 0.00 0.00 0.00 38 1011.6
20260831001004 97 98 1.0 2.0 0.00 0.00 0.00 38 1011.6
20260831000504 97 100 1.0 3.0 0.00 0.00 0.00 38 1011.6
20260831000004 97 135 1.0 5.0 0.00 0.00 0.00 38 1011.7
20260830235504 97 160 1.0 5.0 0.00 0.00 0.00 39 1011.7
20260830235025 97 152 1.0 3.0 0.00 0.00 0.00 39 1011.7
20260830234525 97 100 1.0 4.0 0.00 0.00 0.00 40 1011.7
20260830234025 98 128 2.0 4.0 0.00 0.00 0.00 41 1011.7
20260830233525 98 160 2.0 5.0 0.00 0.00 0.00 41 1011.7
20260830233004 98 168 3.0 5.0 0.00 0.00 0.00 42 1011.7
20260830232504 98 155 2.0 5.0 0.00 0.00 0.00 41 1011.6
20260830232004 98 133 2.0 5.0 0.00 0.00 0.00 40 1011.8
20260830231504 98 119 1.0 5.0 0.00 0.00 0.00 40 1011.8
20260830231004 99 128 2.0 4.0 0.00 0.00 0.00 40 1011.8
20260830230525 99 166 3.0 7.0 0.00 0.00 0.00 40 1011.8
20260830230004 100 190 3.0 7.0 0.00 0.00 0.00 38 1011.8
20260830225504 100 153 2.0 5.0 0.00 0.00 0.00 38 1011.8
20260830225004 100 121 2.0 5.0 0.00 0.00 0.00 37 1011.8
20260830224525 100 200 2.0 5.0 0.00 0.00 0.00 37 1011.7
20260830224004 100 186 3.0 6.0 0.00 0.00 0.00 37 1011.7
20260830223504 101 156 3.0 7.0 0.00 0.00 0.00 37 1011.8
20260830223004 101 155 3.0 7.0 0.00 0.00 0.00 37 1011.8
20260830222504 101 145 2.0 7.0 0.00 0.00 0.00 38 1011.8
20260830222004 100 141 2.0 7.0 0.00 0.00 0.00 37 1011.7
20260830221504 100 170 3.0 7.0 0.00 0.00 0.00 38 1011.7
20260830221004 101 195 2.0 5.0 0.00 0.00 0.00 37 1011.7
20260830220504 101 139 3.0 7.0 0.00 0.00 0.00 37 1011.8
20260830220004 101 152 4.0 7.0 0.00 0.00 0.00 36 1011.7
20260830215504 101 175 3.0 8.0 0.00 0.00 0.00 37 1011.8
20260830215004 101 155 3.0 8.0 0.00 0.00 0.00 37 1011.9
20260830214504 101 153 3.0 7.0 0.00 0.00 0.00 38 1011.9
20260830214004 102 145 3.0 7.0 0.00 0.00 0.00 36 1011.9
20260830213504 102 139 2.0 6.0 0.00 0.00 0.00 37 1012.0
20260830213004 101 158 3.0 8.0 0.00 0.00 0.00 38 1012.0
20260830212504 102 160 4.0 8.0 0.00 0.00 0.00 38 1012.1
20260830212004 102 164 4.0 8.0 0.00 0.00 0.00 38 1012.2
20260830211504 102 168 3.0 8.0 0.00 0.00 0.00 37 1012.3
20260830211004 103 166 2.0 6.0 0.00 0.00 0.00 38 1012.4
20260830210504 101 196 2.0 5.0 0.00 0.00 0.00 41 1012.5
20260830210007 101 198 2.0 6.0 0.00 0.00 0.00 40 1012.6
20260830205504 101 170 3.0 9.0 0.00 0.00 0.00 40 1012.8
20260830205004 101 156 3.0 9.0 0.00 0.00 0.00 42 1012.8
20260830204504 101 101 3.0 6.0 0.00 0.00 0.00 39 1012.9
20260830204004 100 100 3.0 7.0 0.00 0.00 0.00 40 1013.0
20260830203504 99 140 3.0 8.0 0.00 0.00 0.00 42 1013.1
20260830203004 100 103 3.0 8.0 0.00 0.00 0.00 43 1013.1
20260830202504 100 109 3.0 7.0 0.00 0.00 0.00 41 1013.2
20260830202004 102 141 3.0 7.0 0.00 0.00 0.00 41 1013.2
20260830201504 101 159 3.0 7.0 0.00 0.00 0.00 45 1013.1
20260830201004 100 168 4.0 7.0 0.00 0.00 0.00 44 1013.3
20260830200504 101 168 3.0 7.0 0.00 0.00 0.00 39 1013.3
20260830200004 101 196 3.0 8.0 0.00 0.00 0.00 42 1013.3
20260830195504 100 224 3.0 8.0 0.00 0.00 0.00 39 1013.4
20260830195025 100 8 2.0 5.0 0.00 0.00 0.00 40 1013.4
20260830194504 98 198 3.0 5.0 0.00 0.00 0.00 41 1013.5
20260830194025 99 189 3.0 6.0 0.00 0.00 0.00 42 1013.7
20260830193504 99 182 3.0 6.0 0.00 0.00 0.00 42 1013.8
20260830193004 99 180 3.0 10.0 0.00 0.00 0.00 47 1013.9
20260830192525 99 192 5.0 10.0 0.00 0.00 0.00 44 1014.0
20260830192025 100 172 5.0 9.0 0.00 0.00 0.00 43 1014.1
20260830191504 101 169 4.0 8.0 0.00 0.00 0.00 40 1014.1
20260830191004 100 197 4.0 10.0 0.00 0.00 0.00 45 1014.3
20260830190504 100 192 3.0 10.0 0.00 0.00 0.00 47 1014.3
20260830190004 99 187 4.0 9.0 0.00 0.00 0.00 46 1014.4
20260830185504 101 172 4.0 9.0 0.00 0.00 0.00 44 1014.5
20260830185004 100 162 4.0 8.0 0.00 0.00 0.00 47 1014.6
20260830184504 99 180 4.0 8.0 0.00 0.00 0.00 45 1014.7
20260830184004 100 214 4.0 8.0 0.00 0.00 0.00 47 1014.8
20260830183504 98 232 3.0 7.0 0.00 0.00 0.00 49 1014.8
20260830183004 98 181 3.0 7.0 0.00 0.00 0.00 49 1014.9
20260830182504 98 153 3.0 7.0 0.00 0.00 0.00 47 1015.0
20260830182025 99 170 3.0 10.0 0.00 0.00 0.00 48 1015.1
20260830181504 100 173 3.0 10.0 0.00 0.00 0.00 47 1015.2
20260830181004 98 202 3.0 8.0 0.00 0.00 0.00 51 1015.2
20260830180504 97 255 3.0 8.0 0.00 0.00 0.00 50 1015.2
20260830180004 98 256 3.0 6.0 0.00 0.00 0.00 49 1015.3
20260830175504 98 229 3.0 10.0 0.00 0.00 0.00 52 1015.3
20260830175004 97 192 3.0 10.0 0.00 0.00 0.00 48 1015.4
20260830174504 98 180 3.0 8.0 0.00 0.00 0.00 49 1015.5
20260830174004 99 183 3.0 8.0 0.00 0.00 0.00 48 1015.6
20260830173504 98 190 2.0 8.0 0.00 0.00 0.00 50 1015.6
20260830173004 98 212 4.0 8.0 0.00 0.00 0.00 49 1015.7
20260830172504 97 225 4.0 7.0 0.00 0.00 0.00 52 1015.7
20260830172025 97 232 4.0 7.0 0.00 0.00 0.00 50 1015.8
20260830171504 96 237 3.0 7.0 0.00 0.00 0.00 51 1015.8
20260830171004 96 192 3.0 6.0 0.00 0.00 0.00 51 1015.8
20260830170504 97 177 3.0 7.0 0.00 0.00 0.00 51 1015.8
20260830170004 96 190 4.0 9.0 0.00 0.00 0.00 51 1015.8
20260830165525 97 168 4.0 9.0 0.00 0.00 0.00 49 1015.9
20260830165025 96 167 4.0 9.0 0.00 0.00 0.00 51 1016.0
20260830164504 96 158 4.0 10.0 0.00 0.00 0.00 51 1016.0
20260830164004 96 157 4.0 12.0 0.00 0.00 0.00 49 1016.1
20260830163504 96 184 4.0 12.0 0.00 0.00 0.00 49 1016.0
20260830163004 96 189 4.0 10.0 0.00 0.00 0.00 51 1016.1
20260830162504 96 183 4.0 9.0 0.00 0.00 0.00 53 1016.1
20260830162025 95 200 4.0 9.0 0.00 0.00 0.00 51 1016.1
20260830161504 95 186 4.0 8.0 0.00 0.00 0.00 52 1016.1
20260830161004 95 187 4.0 8.0 0.00 0.00 0.00 53 1016.1
20260830160504 95 207 3.0 8.0 0.00 0.00 0.00 54 1016.2
20260830160025 95 199 3.0 8.0 0.00 0.00 0.00 54 1016.2
20260830155525 95 187 3.0 7.0 0.00 0.00 0.00 55 1016.3
20260830155004 94 181 3.0 7.0 0.00 0.00 0.00 58 1016.2
20260830154504 93 178 3.0 7.0 0.00 0.00 0.00 62 1016.2
20260830154025 93 169 3.0 6.0 0.00 0.00 0.00 58 1016.2
20260830153504 92 183 2.0 6.0 0.00 0.00 0.00 60 1016.2
20260830153004 92 200 2.0 8.0 0.00 0.00 0.00 63 1016.2
20260830152504 92 199 3.0 8.0 0.00 0.00 0.00 64 1016.2
20260830152004 91 204 2.0 5.0 0.00 0.00 0.00 64 1016.2
20260830151503 91 217 2.0 5.0 0.00 0.00 0.00 65 1016.2
20260830151025 90 229 2.0 5.0 0.00 0.00 0.00 67 1016.3
20260830150504 90 235 2.0 5.0 0.00 0.00 0.00 66 1016.3
20260830150004 89 221 2.0 4.0 0.00 0.00 0.00 67 1016.3
20260830145503 89 224 2.0 6.0 0.00 0.00 0.00 69 1016.3
20260830145025 89 246 2.0 6.0 0.00 0.00 0.00 68 1016.3
20260830144504 88 191 2.0 5.0 0.00 0.00 0.00 72 1016.4
20260830144025 88 190 3.0 7.0 0.00 0.00 0.00 72 1016.4
20260830143503 87 189 3.0 7.0 0.00 0.00 0.00 73 1016.5
20260830143003 86 192 3.0 7.0 0.00 0.00 0.00 75 1016.5
20260830142504 86 206 2.0 4.0 0.00 0.00 0.00 77 1016.5
20260830142004 85 213 2.0 6.0 0.00 0.00 0.00 78 1016.5
20260830141503 84 226 2.0 6.0 0.00 0.00 0.00 80 1016.4
20260830141003 83 220 2.0 5.0 0.00 0.00 0.00 83 1016.4
20260830140504 82 212 2.0 5.0 0.00 0.00 0.00 85 1016.4
20260830140004 81 224 2.0 4.0 0.00 0.00 0.00 87 1016.5
20260830135503 80 218 2.0 4.0 0.00 0.00 0.00 88 1016.4
20260830135004 79 200 1.0 3.0 0.00 0.00 0.00 90 1016.5
20260830134503 78 202 2.0 4.0 0.00 0.00 0.00 90 1016.5
20260830134003 78 214 2.0 4.0 0.00 0.00 0.00 91 1016.4
20260830133503 77 238 1.0 3.0 0.00 0.00 0.00 91 1016.3
20260830133003 77 241 1.0 3.0 0.00 0.00 0.00 91 1016.3
20260830132504 77 230 1.0 3.0 0.00 0.00 0.00 91 1016.4
20260830132003 76 205 1.0 3.0 0.00 0.00 0.00 91 1016.3
20260830131504 76 175 1.0 2.0 0.00 0.00 0.00 91 1016.3
20260830131025 76 180 1.0 3.0 0.00 0.00 0.00 91 1016.2
20260830130504 76 180 1.0 3.0 0.00 0.00 0.00 91 1016.3
20260830130003 75 176 1.0 2.0 0.00 0.00 0.00 91 1016.1
20260830125503 75 177 1.0 2.0 0.00 0.00 0.00 91 1016.2
20260830125003 74 160 0.0 2.0 0.00 0.00 0.00 90 1016.2
20260830124525 74 140 0.0 1.0 0.00 0.00 0.00 90 1016.1